Regional Weather Roundup
Issued by NWS

Home | Current Version | Previous Version | Text Only | Print | Product List | Glossary Off
Versions: 1 2 3 4 5 6 7 8 9 10 11 12 13 14 15 16 17 18 19 20 21 22 23 24 25 26 27

000
ASUS45 KSLC 021010
RWRUT

UTAH REGIONAL WEATHER ROUNDUP
NATIONAL WEATHER SERVICE SALT LAKE CITY UT
400 AM MDT MON MAY 02 2016

UTZ001>011-023>025-021100-

NORTHERN UTAH

CITY           SKY/WX    TMP DP  RH WIND       PRES   REMARKS
BRIGHAM CITY   CLEAR     49  23  35 E17G25    30.16R
HILL AFB       CLEAR     44  26  49 E14       30.15R
LOGAN          CLEAR     47  25  42 E13G23    30.19R
OGDEN          CLEAR     46  27  47 E8        30.13S
PROVO AIRPORT  CLEAR     45  28  53 CALM      30.15R
SALT LAKE CITY PTCLDY    47  31  53 CALM      30.13R
VERNAL         CLEAR     35  24  64 W6        30.21R WCI  30
WENDOVER       CLEAR     41  34  75 CALM      30.14R
HEBER CITY     CLEAR     32  27  80 CALM      30.19S

$$

UTZ012>022-026-027-021100-

SOUTHERN/CENTRAL UTAH

CITY           SKY/WX    TMP DP  RH WIND       PRES   REMARKS
BLANDING       CLOUDY    43  38  83 SE12      30.27S
BRYCE CANYON   CLEAR     29  26  89 CALM      30.21R
CEDAR CITY     CLOUDY    43  38  82 S6        30.13R
DELTA          CLOUDY    41  36  81 SE3       30.13S
HANKSVILLE     CLOUDY    50  37  62 CALM      30.17R
MILFORD        CLOUDY    48  37  65 NW3       30.13R
MOAB/CYNLANDS  CLOUDY    49  40  71 E5        30.15R
PRICE          CLOUDY    43  29  57 N3        30.18R
ST GEORGE      SUNNY     54  41  62 W3        30.11R
KANAB          CLOUDY    48  39  71 N5        30.19R

$$

REGIONAL REPORTS     COLORADO/ARIZONA

CITY           SKY/WX    TMP DP  RH WIND       PRES   REMARKS
CRAIG, CO      CLOUDY    29  23  78 W5        30.22R WCI  24
GRAND JUNCTION CLOUDY    43  39  86 E6        30.17S
RIFLE          CLOUDY    45  40  82 CALM      30.19R
MONTROSE       CLOUDY    42  38  85 S6        30.22S
CORTEZ         CLOUDY    41  34  76 W3        30.21S
PAGE, AZ       CLOUDY    50  42  74 CALM      30.14R
GRAND CANYON   PTCLDY    32  29  88 CALM      30.17S
KINGMAN        CLEAR     54  32  43 SE7       30.05S
FLAGSTAFF      PTCLDY    28  28 100 CALM      30.17R

$$

REGIONAL REPORTS    NEVADA/IDAHO/WYOMING

CITY           SKY/WX    TMP DP  RH WIND       PRES   REMARKS
LAS VEGAS, NV  CLEAR     60  44  55 S3        29.97R
ELY            CLEAR     30  27  88 S10       30.18R WCI  21
ELKO           CLEAR     37  31  78 CALM      30.13S
POCATELLO, ID  CLEAR     39  27  62 NE5       30.19R
BURLEY         CLEAR     37  32  82 N3        30.14R
EVANSTON, WY   CLOUDY    31  22  69 NE10      30.24R WCI  22
ROCK SPRINGS   CLOUDY    28  21  75 N5        30.25S WCI  23

$$




USA.gov is the U.S. government's official web portal to all federal, state and local government web resources and services.